EW4071 Weather Reports


Display with metric or nautical units.
time (UTC)temp
F
wind
direction
speed
MPH
gust
MPH
rain 1hr
in
rain 24hr
in
rain mn
in
humidity
%
barometer
mb
20260507113042 44 322 0.0 0.0 0.00 0.00 0.00 90 1017.3
20260507111534 45 322 0.0 0.0 0.00 0.00 0.00 88 1017.3
20260507110036 45 322 0.0 0.0 0.00 0.00 0.00 87 1017.3
20260507104528 46 322 0.0 0.0 0.00 0.00 0.00 85 1017.3
20260507103026 47 322 0.0 0.0 0.00 0.00 0.00 85 1017.3
20260507101524 48 322 0.0 0.0 0.00 0.00 0.00 83 1017.3
20260507100034 48 322 0.0 0.0 0.00 0.00 0.00 83 1017.3
20260507094522 48 322 0.0 0.0 0.00 0.00 0.00 83 1017.5
20260507093022 48 322 0.0 0.0 0.00 0.00 0.00 82 1017.5
20260507091522 47 322 0.0 0.0 0.00 0.00 0.00 82 1017.6
20260507090017 47 322 0.0 0.0 0.00 0.00 0.00 81 1017.5
20260507084516 48 322 0.0 0.0 0.00 0.00 0.00 81 1017.5
20260507083016 48 322 0.0 0.0 0.00 0.00 0.00 80 1017.4
20260507081513 48 322 0.0 0.0 0.00 0.00 0.00 80 1017.6
20260507080013 48 322 0.0 0.0 0.00 0.00 0.00 78 1017.7
20260507074518 48 322 0.0 0.0 0.00 0.00 0.00 78 1017.6
20260507073010 48 322 0.0 0.0 0.00 0.00 0.00 77 1017.8
20260507071511 48 322 0.0 0.0 0.00 0.00 0.00 76 1018.0
20260507070012 47 322 0.0 0.0 0.00 0.00 0.00 77 1017.8
20260507064506 48 322 0.0 0.0 0.00 0.00 0.00 76 1018.1
20260507063005 47 322 0.0 0.0 0.00 0.00 0.00 76 1018.4
20260507061504 47 322 0.0 0.0 0.00 0.00 0.00 74 1017.9
20260507060005 47 322 0.0 0.0 0.00 0.00 0.00 76 1017.8
20260507054502 47 322 0.0 0.0 0.00 0.00 0.00 74 1018.0
20260507053059 48 322 0.0 0.0 0.00 0.00 0.00 73 1018.2
20260507051556 49 322 0.0 0.0 0.00 0.00 0.00 71 1018.2
20260507050056 50 322 0.0 0.0 0.00 0.00 0.00 67 1017.7
20260507044552 51 322 0.0 0.0 0.00 0.00 0.00 66 1017.2
20260507043051 51 322 0.0 0.0 0.00 0.00 0.00 66 1017.6
20260507041549 51 322 0.0 0.0 0.00 0.00 0.00 66 1017.6
20260507040052 52 322 0.0 0.0 0.00 0.00 0.00 64 1017.6
20260507034605 53 322 0.0 0.0 0.00 0.00 0.00 63 1017.5
20260507033102 53 12 0.0 0.0 0.00 0.00 0.00 61 1017.6
20260507031547 54 12 0.0 0.0 0.00 0.00 0.00 59 1017.3
20260507030046 55 12 0.0 0.0 0.00 0.00 0.00 58 1017.3
20260507024553 55 17 0.0 0.0 0.00 0.00 0.00 57 1017.3
20260507023044 56 83 0.0 0.0 0.00 0.00 0.00 56 1017.0
20260507021540 56 83 0.0 0.0 0.00 0.00 0.00 54 1016.8
20260507020039 57 87 0.0 0.0 0.00 0.00 0.00 52 1016.6
20260507014538 58 347 0.0 0.0 0.00 0.00 0.00 50 1016.4
20260507013040 59 17 0.0 0.0 0.00 0.00 0.00 48 1016.3
20260507011539 59 10 0.0 0.0 0.00 0.00 0.00 46 1016.3
20260507010040 60 34 0.0 0.0 0.00 0.00 0.00 46 1016.2
20260507004536 60 10 0.0 0.0 0.00 0.00 0.00 45 1016.1
20260507003035 60 115 0.0 4.0 0.00 0.00 0.00 43 1016.0
20260507001553 61 3 0.0 0.0 0.00 0.00 0.00 42 1015.8
20260507000034 61 152 0.0 5.0 0.00 0.00 0.00 43 1015.8
20260506234546 62 89 0.0 5.0 0.00 0.00 0.00 44 1015.6
20260506233033 62 43 0.0 7.0 0.00 0.00 0.00 42 1015.5
20260506231536 62 329 0.0 8.0 0.00 0.00 0.00 41 1015.4
20260506230030 63 298 2.0 8.0 0.00 0.00 0.00 41 1015.2
20260506224530 63 126 1.0 13.0 0.00 0.00 0.00 42 1015.2
20260506223031 63 84 2.0 9.0 0.00 0.00 0.00 40 1015.1
20260506221527 63 303 1.0 10.0 0.00 0.00 0.00 40 1014.9
20260506220034 63 353 0.0 9.0 0.00 0.00 0.00 42 1014.9
20260506214524 63 19 1.0 9.0 0.00 0.00 0.00 43 1015.0
20260506213023 63 296 2.0 11.0 0.00 0.00 0.00 43 1015.1
20260506211522 63 92 0.0 8.0 0.00 0.00 0.00 42 1015.1
20260506210019 63 97 4.0 9.0 0.00 0.00 0.00 43 1015.5
20260506204519 63 42 0.0 12.0 0.00 0.00 0.00 45 1015.7
20260506203018 63 97 3.0 14.0 0.00 0.00 0.00 45 1015.7
20260506201517 63 292 2.0 10.0 0.00 0.00 0.00 46 1016.1
20260506200015 62 353 3.0 13.0 0.00 0.00 0.00 43 1016.2
20260506194517 62 321 3.0 16.0 0.00 0.00 0.00 44 1016.2
20260506193012 62 133 2.0 10.0 0.00 0.00 0.00 45 1016.4
20260506191512 62 121 0.0 12.0 0.00 0.00 0.00 45 1016.5
20260506190010 62 14 2.0 12.0 0.00 0.00 0.00 48 1016.5
20260506184508 61 129 1.0 9.0 0.00 0.00 0.00 50 1016.6
20260506183008 61 356 2.0 11.0 0.00 0.00 0.00 48 1016.8
20260506181507 61 184 2.0 9.0 0.00 0.00 0.00 49 1016.9
20260506180006 60 164 2.0 13.0 0.00 0.00 0.00 48 1017.3
20260506174503 60 61 2.0 9.0 0.00 0.00 0.00 47 1017.2
20260506173002 60 67 0.0 14.0 0.00 0.00 0.00 50 1017.6
20260506171606 59 62 2.0 11.0 0.00 0.00 0.00 48 1017.6
20260506170109 59 72 2.0 11.0 0.00 0.00 0.00 51 1017.3
20260506164557 58 115 1.0 12.0 0.00 0.00 0.00 52 1017.4
20260506163055 58 349 4.0 10.0 0.00 0.00 0.00 49 1017.6
20260506161552 58 14 1.0 9.0 0.00 0.00 0.00 53 1017.8
20260506160059 57 42 1.0 15.0 0.00 0.00 0.00 56 1017.5
20260506154548 56 116 3.0 14.0 0.00 0.00 0.00 54 1017.1
20260506153041 55 74 3.0 11.0 0.00 0.00 0.00 55 1017.0
20260506151543 55 20 4.0 10.0 0.00 0.00 0.00 58 1017.1
20260506150036 54 69 2.0 16.0 0.00 0.00 0.00 60 1017.1
20260506144532 53 37 1.0 7.0 0.00 0.00 0.00 64 1017.2
20260506143034 52 15 0.0 1.0 0.00 0.00 0.00 70 1016.9
20260506141525 51 15 0.0 7.0 0.00 0.00 0.00 73 1016.8
20260506140022 50 16 0.0 6.0 0.00 0.00 0.00 75 1016.4
20260506134523 50 42 0.0 8.0 0.00 0.00 0.00 76 1016.9
20260506133017 49 313 1.0 7.0 0.00 0.00 0.00 77 1017.2
20260506131535 48 43 0.0 7.0 0.00 0.00 0.00 78 1017.0
20260506130023 48 81 0.0 6.0 0.00 0.00 0.00 79 1017.0
20260506124510 48 128 0.0 0.0 0.00 0.00 0.00 80 1016.7
20260506123008 47 109 0.0 0.0 0.00 0.00 0.00 80 1016.5
20260506121508 47 26 0.0 6.0 0.00 0.00 0.00 80 1015.9
20260506120012 47 339 0.0 0.0 0.00 0.00 0.00 80 1015.9
20260506114503 47 332 0.0 0.0 0.00 0.00 0.00 80 1015.9